| time (UTC) | temp F | wind direction | speed MPH | gust MPH | rain 1hr in | rain 24hr in | rain mn in | humidity % | barometer mb |
| 20260904015521 | 64 | 0 | 0.0 | 0.0 | 0.00 | 0.01 | 0.01 | 96 | 1014.6 |
| 20260904015022 | 65 | 0 | 0.0 | 0.0 | 0.00 | 0.01 | 0.01 | 96 | 1014.6 |
| 20260904014542 | 65 | 0 | 0.0 | 0.0 | 0.00 | 0.01 | 0.01 | 96 | 1014.6 |
| 20260904014024 | 65 | 0 | 0.0 | 0.0 | 0.00 | 0.01 | 0.01 | 96 | 1014.6 |
| 20260904013523 | 65 | 0 | 0.0 | 1.0 | 0.00 | 0.01 | 0.01 | 96 | 1014.9 |
| 20260904013044 | 65 | 0 | 0.0 | 1.0 | 0.00 | 0.01 | 0.01 | 96 | 1014.6 |
| 20260904012525 | 65 | 0 | 0.0 | 1.0 | 0.00 | 0.01 | 0.01 | 96 | 1014.6 |
| 20260904012025 | 65 | 322 | 0.0 | 2.0 | 0.00 | 0.01 | 0.01 | 96 | 1014.6 |
| 20260904011543 | 66 | 0 | 0.0 | 2.0 | 0.00 | 0.01 | 0.01 | 96 | 1014.7 |
| 20260904011023 | 66 | 348 | 0.0 | 2.0 | 0.00 | 0.01 | 0.01 | 96 | 1014.6 |
| 20260904010527 | 66 | 342 | 1.0 | 2.0 | 0.00 | 0.01 | 0.01 | 96 | 1014.6 |
| 20260904010039 | 66 | 345 | 0.0 | 2.0 | 0.00 | 0.01 | 0.01 | 95 | 1014.6 |
| 20260904005521 | 66 | 56 | 1.0 | 2.0 | 0.00 | 0.01 | 0.01 | 95 | 1014.6 |
| 20260904005020 | 67 | 94 | 0.0 | 2.0 | 0.00 | 0.01 | 0.01 | 95 | 1014.5 |
| 20260904004543 | 67 | 0 | 0.0 | 3.0 | 0.00 | 0.01 | 0.01 | 95 | 1014.6 |
| 20260904004023 | 67 | 162 | 1.0 | 3.0 | 0.00 | 0.01 | 0.01 | 95 | 1014.5 |
| 20260904003526 | 67 | 356 | 1.0 | 2.0 | 0.00 | 0.01 | 0.01 | 95 | 1014.5 |
| 20260904003041 | 67 | 302 | 0.0 | 4.0 | 0.00 | 0.01 | 0.01 | 94 | 1014.5 |
| 20260904002524 | 67 | 320 | 1.0 | 4.0 | 0.00 | 0.01 | 0.01 | 94 | 1014.4 |
| 20260904002026 | 68 | 173 | 0.0 | 2.0 | 0.00 | 0.01 | 0.01 | 93 | 1014.1 |
| 20260904001541 | 68 | 173 | 0.0 | 3.0 | 0.00 | 0.01 | 0.01 | 93 | 1014.1 |
| 20260904001023 | 69 | 264 | 0.0 | 3.0 | 0.00 | 0.01 | 0.01 | 93 | 1014.0 |
| 20260904000521 | 69 | 234 | 1.0 | 3.0 | 0.00 | 0.01 | 0.01 | 92 | 1013.9 |
| 20260904000108 | 69 | 61 | 0.0 | 2.0 | 0.00 | 0.01 | 0.01 | 93 | 1013.9 |
| 20260903235523 | 69 | 285 | 1.0 | 2.0 | 0.00 | 0.01 | 0.01 | 93 | 1013.9 |
| 20260903235021 | 69 | 211 | 0.0 | 2.0 | 0.00 | 0.01 | 0.01 | 92 | 1013.7 |
| 20260903234541 | 69 | 246 | 1.0 | 5.0 | 0.00 | 0.01 | 0.01 | 92 | 1013.7 |
| 20260903234023 | 69 | 320 | 0.0 | 5.0 | 0.00 | 0.01 | 0.01 | 94 | 1013.7 |
| 20260903233529 | 69 | 330 | 1.0 | 5.0 | 0.00 | 0.01 | 0.01 | 92 | 1013.5 |
| 20260903233100 | 69 | 0 | 0.0 | 2.0 | 0.00 | 0.01 | 0.01 | 94 | 1013.4 |
| 20260903232524 | 69 | 97 | 0.0 | 2.0 | 0.00 | 0.01 | 0.01 | 95 | 1013.5 |
| 20260903232023 | 69 | 0 | 0.0 | 1.0 | 0.00 | 0.01 | 0.01 | 95 | 1013.5 |
| 20260903231546 | 69 | 0 | 0.0 | 1.0 | 0.00 | 0.01 | 0.01 | 95 | 1013.7 |
| 20260903231023 | 69 | 246 | 0.0 | 3.0 | 0.00 | 0.01 | 0.01 | 95 | 1013.7 |
| 20260903230523 | 70 | 0 | 0.0 | 3.0 | 0.00 | 0.01 | 0.01 | 95 | 1013.6 |
| 20260903230103 | 70 | 243 | 1.0 | 3.0 | 0.00 | 0.01 | 0.01 | 94 | 1013.6 |
| 20260903225523 | 70 | 82 | 0.0 | 2.0 | 0.00 | 0.01 | 0.01 | 94 | 1013.7 |
| 20260903225024 | 70 | 136 | 0.0 | 2.0 | 0.00 | 0.01 | 0.01 | 95 | 1013.6 |
| 20260903224543 | 70 | 0 | 0.0 | 2.0 | 0.00 | 0.01 | 0.01 | 95 | 1013.8 |
| 20260903224024 | 70 | 244 | 0.0 | 2.0 | 0.00 | 0.01 | 0.01 | 94 | 1013.8 |
| 20260903223531 | 71 | 281 | 0.0 | 2.0 | 0.00 | 0.01 | 0.01 | 94 | 1013.6 |
| 20260903223108 | 71 | 281 | 0.0 | 2.0 | 0.00 | 0.01 | 0.01 | 94 | 1013.7 |
| 20260903222521 | 71 | 281 | 1.0 | 2.0 | 0.00 | 0.01 | 0.01 | 93 | 1013.7 |
| 20260903222023 | 71 | 0 | 0.0 | 1.0 | 0.00 | 0.01 | 0.01 | 93 | 1013.6 |
| 20260903221542 | 72 | 0 | 0.0 | 1.0 | 0.00 | 0.01 | 0.01 | 92 | 1013.5 |
| 20260903221018 | 72 | 0 | 0.0 | 1.0 | 0.00 | 0.01 | 0.01 | 92 | 1013.7 |
| 20260903220524 | 72 | 8 | 0.0 | 1.0 | 0.00 | 0.01 | 0.01 | 92 | 1013.5 |
| 20260903220045 | 72 | 0 | 0.0 | 1.0 | 0.00 | 0.01 | 0.01 | 91 | 1013.6 |
| 20260903215524 | 73 | 8 | 0.0 | 1.0 | 0.00 | 0.01 | 0.01 | 90 | 1013.7 |
| 20260903215022 | 74 | 8 | 0.0 | 2.0 | 0.00 | 0.01 | 0.01 | 88 | 1013.7 |
| 20260903214550 | 74 | 10 | 0.0 | 2.0 | 0.00 | 0.01 | 0.01 | 87 | 1013.6 |
| 20260903214021 | 75 | 11 | 1.0 | 3.0 | 0.00 | 0.01 | 0.01 | 85 | 1013.7 |
| 20260903213521 | 76 | 229 | 1.0 | 4.0 | 0.00 | 0.01 | 0.01 | 82 | 1013.4 |
| 20260903213053 | 76 | 207 | 1.0 | 4.0 | 0.00 | 0.01 | 0.01 | 81 | 1013.7 |
| 20260903212522 | 76 | 49 | 0.0 | 2.0 | 0.00 | 0.01 | 0.01 | 83 | 1014.0 |
| 20260903212020 | 76 | 186 | 1.0 | 8.0 | 0.00 | 0.01 | 0.01 | 81 | 1014.2 |
| 20260903211544 | 76 | 79 | 2.0 | 8.0 | 0.00 | 0.01 | 0.01 | 80 | 1014.2 |
| 20260903211025 | 76 | 302 | 2.0 | 7.0 | 0.00 | 0.01 | 0.01 | 81 | 1014.0 |
| 20260903210522 | 76 | 121 | 1.0 | 6.0 | 0.00 | 0.01 | 0.01 | 81 | 1014.0 |
| 20260903210109 | 76 | 210 | 1.0 | 10.0 | 0.00 | 0.01 | 0.01 | 81 | 1013.9 |
| 20260903205525 | 76 | 221 | 2.0 | 10.0 | 0.00 | 0.01 | 0.01 | 81 | 1013.8 |
| 20260903205019 | 77 | 205 | 1.0 | 5.0 | 0.00 | 0.01 | 0.01 | 81 | 1013.8 |
| 20260903204545 | 77 | 197 | 1.0 | 6.0 | 0.00 | 0.01 | 0.01 | 81 | 1013.9 |
| 20260903204021 | 77 | 238 | 2.0 | 6.0 | 0.00 | 0.01 | 0.01 | 80 | 1013.8 |
| 20260903203520 | 78 | 169 | 1.0 | 6.0 | 0.00 | 0.01 | 0.01 | 82 | 1013.8 |
| 20260903203042 | 78 | 206 | 1.0 | 4.0 | 0.00 | 0.01 | 0.01 | 81 | 1013.7 |
| 20260903202526 | 78 | 217 | 1.0 | 3.0 | 0.00 | 0.01 | 0.01 | 81 | 1013.6 |
| 20260903202024 | 78 | 128 | 1.0 | 3.0 | 0.00 | 0.01 | 0.01 | 82 | 1013.7 |
| 20260903201542 | 78 | 238 | 1.0 | 6.0 | 0.00 | 0.01 | 0.01 | 83 | 1013.7 |
| 20260903201024 | 79 | 288 | 2.0 | 6.0 | 0.00 | 0.01 | 0.01 | 81 | 1013.6 |
| 20260903200521 | 79 | 226 | 1.0 | 4.0 | 0.00 | 0.01 | 0.01 | 78 | 1013.6 |
| 20260903200043 | 79 | 54 | 1.0 | 4.0 | 0.00 | 0.01 | 0.01 | 81 | 1013.7 |
| 20260903195519 | 79 | 143 | 2.0 | 4.0 | 0.00 | 0.01 | 0.01 | 77 | 1013.8 |
| 20260903195023 | 79 | 202 | 1.0 | 4.0 | 0.00 | 0.01 | 0.01 | 79 | 1013.8 |
| 20260903194547 | 79 | 230 | 1.0 | 6.0 | 0.00 | 0.01 | 0.01 | 80 | 1013.9 |
| 20260903194021 | 78 | 250 | 2.0 | 6.0 | 0.00 | 0.01 | 0.01 | 78 | 1013.9 |
| 20260903193531 | 78 | 175 | 2.0 | 6.0 | 0.00 | 0.01 | 0.01 | 81 | 1013.8 |
| 20260903193044 | 77 | 222 | 2.0 | 4.0 | 0.00 | 0.01 | 0.01 | 81 | 1013.9 |
| 20260903192524 | 77 | 189 | 2.0 | 4.0 | 0.00 | 0.01 | 0.01 | 82 | 1014.1 |
| 20260903192023 | 77 | 56 | 1.0 | 7.0 | 0.00 | 0.01 | 0.01 | 83 | 1014.2 |
| 20260903191545 | 77 | 252 | 2.0 | 7.0 | 0.00 | 0.01 | 0.01 | 80 | 1014.2 |
| 20260903191027 | 76 | 167 | 2.0 | 7.0 | 0.00 | 0.01 | 0.01 | 82 | 1014.2 |
| 20260903190524 | 77 | 213 | 2.0 | 5.0 | 0.00 | 0.01 | 0.01 | 83 | 1014.3 |
| 20260903190046 | 77 | 120 | 2.0 | 6.0 | 0.00 | 0.01 | 0.01 | 82 | 1014.3 |
| 20260903185521 | 76 | 229 | 1.0 | 6.0 | 0.00 | 0.01 | 0.01 | 84 | 1014.3 |
| 20260903185030 | 76 | 165 | 1.0 | 6.0 | 0.00 | 0.01 | 0.01 | 85 | 1014.4 |
| 20260903184550 | 75 | 0 | 1.0 | 4.0 | 0.00 | 0.01 | 0.01 | 86 | 1014.4 |
| 20260903184024 | 75 | 173 | 0.0 | 6.0 | 0.00 | 0.01 | 0.01 | 85 | 1014.4 |
| 20260903183519 | 75 | 129 | 1.0 | 6.0 | 0.00 | 0.01 | 0.01 | 86 | 1014.6 |
| 20260903183042 | 75 | 284 | 1.0 | 6.0 | 0.00 | 0.01 | 0.01 | 84 | 1014.6 |
| 20260903182527 | 74 | 0 | 0.0 | 3.0 | 0.00 | 0.01 | 0.01 | 88 | 1014.6 |
| 20260903182021 | 74 | 0 | 0.0 | 3.0 | 0.00 | 0.01 | 0.01 | 88 | 1014.7 |
| 20260903181544 | 74 | 131 | 1.0 | 4.0 | 0.00 | 0.01 | 0.01 | 86 | 1014.7 |
| 20260903181026 | 74 | 114 | 0.0 | 4.0 | 0.00 | 0.01 | 0.01 | 89 | 1014.9 |
| 20260903180522 | 74 | 172 | 1.0 | 4.0 | 0.00 | 0.01 | 0.01 | 86 | 1014.8 |
| 20260903180045 | 74 | 0 | 0.0 | 3.0 | 0.00 | 0.01 | 0.01 | 87 | 1014.9 |
| 20260903175520 | 74 | 94 | 0.0 | 3.0 | 0.00 | 0.01 | 0.01 | 85 | 1014.7 |
| 20260903175019 | 74 | 245 | 0.0 | 4.0 | 0.00 | 0.01 | 0.01 | 85 | 1014.8 |
| 20260903174547 | 75 | 116 | 1.0 | 4.0 | 0.00 | 0.01 | 0.01 | 85 | 1014.8 |
| 20260903174023 | 75 | 236 | 1.0 | 4.0 | 0.00 | 0.01 | 0.01 | 85 | 1014.7 |
| 20260903173525 | 74 | 41 | 1.0 | 4.0 | 0.00 | 0.01 | 0.01 | 86 | 1014.8 |
| 20260903173045 | 74 | 148 | 0.0 | 6.0 | 0.00 | 0.01 | 0.01 | 86 | 1014.9 |
| 20260903172525 | 75 | 146 | 0.0 | 6.0 | 0.00 | 0.01 | 0.01 | 85 | 1015.0 |
| 20260903172026 | 75 | 181 | 2.0 | 8.0 | 0.00 | 0.01 | 0.01 | 84 | 1015.1 |
| 20260903171544 | 75 | 172 | 1.0 | 8.0 | 0.00 | 0.01 | 0.01 | 84 | 1015.1 |
| 20260903171020 | 75 | 147 | 2.0 | 8.0 | 0.00 | 0.01 | 0.01 | 84 | 1015.0 |
| 20260903170521 | 74 | 187 | 2.0 | 4.0 | 0.00 | 0.01 | 0.01 | 86 | 1015.1 |
| 20260903170043 | 74 | 190 | 1.0 | 3.0 | 0.00 | 0.01 | 0.01 | 87 | 1015.3 |
| 20260903165525 | 73 | 65 | 1.0 | 3.0 | 0.00 | 0.01 | 0.01 | 88 | 1015.3 |
| 20260903165025 | 73 | 158 | 1.0 | 2.0 | 0.00 | 0.01 | 0.01 | 88 | 1015.5 |
| 20260903164545 | 72 | 224 | 1.0 | 6.0 | 0.00 | 0.01 | 0.01 | 87 | 1015.4 |
| 20260903164027 | 72 | 102 | 2.0 | 6.0 | 0.00 | 0.01 | 0.01 | 87 | 1015.5 |
| 20260903163528 | 73 | 224 | 1.0 | 6.0 | 0.00 | 0.01 | 0.01 | 88 | 1015.6 |
| 20260903163044 | 73 | 112 | 2.0 | 6.0 | 0.00 | 0.01 | 0.01 | 86 | 1015.5 |
| 20260903162527 | 73 | 57 | 2.0 | 5.0 | 0.00 | 0.01 | 0.01 | 85 | 1015.5 |
| 20260903162029 | 74 | 134 | 1.0 | 5.0 | 0.00 | 0.01 | 0.01 | 87 | 1015.4 |
| 20260903161541 | 73 | 225 | 1.0 | 9.0 | 0.00 | 0.01 | 0.01 | 86 | 1015.5 |
| 20260903161024 | 73 | 178 | 3.0 | 9.0 | 0.00 | 0.01 | 0.01 | 85 | 1015.4 |
| 20260903160524 | 73 | 101 | 1.0 | 9.0 | 0.00 | 0.01 | 0.01 | 86 | 1015.5 |
| 20260903160046 | 73 | 206 | 3.0 | 7.0 | 0.00 | 0.01 | 0.01 | 85 | 1015.5 |
| 20260903155524 | 74 | 103 | 2.0 | 7.0 | 0.00 | 0.01 | 0.01 | 85 | 1015.5 |
| 20260903155024 | 74 | 169 | 2.0 | 7.0 | 0.00 | 0.01 | 0.01 | 84 | 1015.4 |
| 20260903154546 | 74 | 199 | 3.0 | 7.0 | 0.00 | 0.01 | 0.01 | 88 | 1015.3 |
| 20260903154029 | 73 | 147 | 2.0 | 5.0 | 0.00 | 0.01 | 0.01 | 87 | 1015.4 |
| 20260903153524 | 72 | 248 | 1.0 | 2.0 | 0.00 | 0.01 | 0.01 | 89 | 1015.6 |
| 20260903153043 | 72 | 232 | 1.0 | 3.0 | 0.00 | 0.01 | 0.01 | 90 | 1015.6 |
| 20260903152521 | 72 | 246 | 1.0 | 3.0 | 0.00 | 0.01 | 0.01 | 89 | 1015.6 |
| 20260903152027 | 71 | 139 | 0.0 | 3.0 | 0.00 | 0.01 | 0.01 | 91 | 1015.5 |
| 20260903151541 | 71 | 121 | 0.0 | 3.0 | 0.00 | 0.01 | 0.01 | 90 | 1015.6 |
| 20260903151025 | 70 | 158 | 1.0 | 3.0 | 0.00 | 0.01 | 0.01 | 91 | 1015.7 |
| 20260903150526 | 70 | 0 | 0.0 | 0.0 | 0.00 | 0.01 | 0.01 | 94 | 1015.6 |
| 20260903150057 | 69 | 0 | 0.0 | 1.0 | 0.00 | 0.01 | 0.01 | 94 | 1015.7 |
| 20260903145525 | 69 | 0 | 0.0 | 2.0 | 0.00 | 0.01 | 0.01 | 93 | 1015.7 |
| 20260903145026 | 69 | 0 | 0.0 | 2.0 | 0.00 | 0.01 | 0.01 | 93 | 1015.8 |
| 20260903144543 | 69 | 189 | 0.0 | 2.0 | 0.00 | 0.01 | 0.01 | 94 | 1015.8 |
| 20260903144021 | 69 | 215 | 1.0 | 2.0 | 0.00 | 0.01 | 0.01 | 93 | 1016.0 |
| 20260903143521 | 69 | 0 | 0.0 | 2.0 | 0.00 | 0.01 | 0.01 | 94 | 1016.0 |
| 20260903143040 | 69 | 0 | 0.0 | 1.0 | 0.00 | 0.01 | 0.01 | 94 | 1015.8 |
| 20260903142524 | 68 | 0 | 0.0 | 0.0 | 0.00 | 0.01 | 0.01 | 95 | 1015.9 |
| 20260903142025 | 68 | 0 | 0.0 | 0.0 | 0.00 | 0.01 | 0.01 | 96 | 1015.9 |
| 20260903141545 | 68 | 0 | 0.0 | 1.0 | 0.00 | 0.01 | 0.01 | 97 | 1015.9 |
| 20260903141023 | 68 | 0 | 0.0 | 1.0 | 0.00 | 0.01 | 0.01 | 97 | 1016.0 |
| 20260903140525 | 67 | 171 | 0.0 | 2.0 | 0.00 | 0.01 | 0.01 | 97 | 1016.0 |
| 20260903140047 | 67 | 172 | 0.0 | 2.0 | 0.00 | 0.01 | 0.01 | 97 | 1015.9 |
| 20260903135525 | 67 | 0 | 0.0 | 0.0 | 0.00 | 0.01 | 0.01 | 98 | 1016.0 |
| 20260903135021 | 67 | 0 | 0.0 | 0.0 | 0.00 | 0.01 | 0.01 | 98 | 1015.9 |
| 20260903134546 | 67 | 0 | 0.0 | 0.0 | 0.00 | 0.01 | 0.01 | 98 | 1015.9 |
| 20260903134021 | 66 | 0 | 0.0 | 0.0 | 0.00 | 0.01 | 0.01 | 98 | 1015.9 |
| 20260903133523 | 66 | 0 | 0.0 | 0.0 | 0.00 | 0.01 | 0.01 | 98 | 1016.0 |
| 20260903133041 | 66 | 0 | 0.0 | 0.0 | 0.00 | 0.01 | 0.01 | 98 | 1015.9 |
| 20260903132519 | 65 | 0 | 0.0 | 0.0 | 0.00 | 0.01 | 0.01 | 98 | 1015.9 |
| 20260903132017 | 65 | 0 | 0.0 | 0.0 | 0.00 | 0.01 | 0.01 | 98 | 1016.0 |
| 20260903131553 | 65 | 0 | 0.0 | 0.0 | 0.00 | 0.01 | 0.01 | 98 | 1016.1 |
| 20260903131024 | 65 | 0 | 0.0 | 0.0 | 0.00 | 0.01 | 0.01 | 98 | 1016.1 |
| 20260903130526 | 65 | 0 | 0.0 | 0.0 | 0.00 | 0.01 | 0.01 | 98 | 1016.1 |
| 20260903130044 | 65 | 0 | 0.0 | 0.0 | 0.00 | 0.01 | 0.01 | 98 | 1016.0 |
| 20260903125524 | 65 | 0 | 0.0 | 0.0 | 0.00 | 0.01 | 0.01 | 98 | 1016.1 |
| 20260903125023 | 65 | 0 | 0.0 | 0.0 | 0.00 | 0.01 | 0.01 | 98 | 1016.2 |
| 20260903124542 | 65 | 0 | 0.0 | 0.0 | 0.00 | 0.01 | 0.01 | 98 | 1016.0 |
| 20260903124020 | 65 | 0 | 0.0 | 0.0 | 0.00 | 0.01 | 0.01 | 98 | 1016.1 |
| 20260903123521 | 65 | 0 | 0.0 | 0.0 | 0.00 | 0.01 | 0.01 | 98 | 1016.2 |
| 20260903123044 | 64 | 0 | 0.0 | 0.0 | 0.00 | 0.01 | 0.01 | 98 | 1016.2 |
| 20260903122520 | 64 | 0 | 0.0 | 0.0 | 0.00 | 0.01 | 0.01 | 98 | 1016.2 |
| 20260903122020 | 64 | 0 | 0.0 | 0.0 | 0.00 | 0.01 | 0.01 | 98 | 1016.3 |
| 20260903121553 | 64 | 0 | 0.0 | 0.0 | 0.00 | 0.01 | 0.01 | 98 | 1016.2 |
| 20260903121022 | 64 | 0 | 0.0 | 0.0 | 0.00 | 0.01 | 0.01 | 98 | 1016.2 |
| 20260903120523 | 64 | 0 | 0.0 | 0.0 | 0.00 | 0.01 | 0.01 | 98 | 1016.3 |
| 20260903120038 | 64 | 0 | 0.0 | 0.0 | 0.00 | 0.01 | 0.01 | 98 | 1016.3 |
| 20260903115523 | 64 | 0 | 0.0 | 0.0 | 0.00 | 0.01 | 0.01 | 98 | 1016.3 |
| 20260903115026 | 64 | 0 | 0.0 | 0.0 | 0.00 | 0.01 | 0.01 | 98 | 1016.4 |
| 20260903114540 | 64 | 0 | 0.0 | 0.0 | 0.00 | 0.01 | 0.01 | 98 | 1016.4 |
| 20260903114020 | 64 | 0 | 0.0 | 0.0 | 0.00 | 0.01 | 0.01 | 98 | 1016.4 |
| 20260903113519 | 64 | 0 | 0.0 | 0.0 | 0.00 | 0.01 | 0.01 | 98 | 1016.5 |
| 20260903113042 | 64 | 0 | 0.0 | 0.0 | 0.00 | 0.01 | 0.01 | 98 | 1016.6 |
| 20260903112522 | 64 | 0 | 0.0 | 0.0 | 0.00 | 0.01 | 0.01 | 98 | 1016.5 |
| 20260903112018 | 64 | 0 | 0.0 | 0.0 | 0.00 | 0.01 | 0.01 | 98 | 1016.4 |
| 20260903111545 | 64 | 0 | 0.0 | 0.0 | 0.00 | 0.01 | 0.01 | 98 | 1016.5 |
| 20260903111023 | 64 | 0 | 0.0 | 0.0 | 0.00 | 0.01 | 0.01 | 98 | 1016.4 |
| 20260903110521 | 64 | 0 | 0.0 | 0.0 | 0.01 | 0.01 | 0.01 | 98 | 1016.4 |
| 20260903110043 | 64 | 0 | 0.0 | 0.0 | 0.01 | 0.01 | 0.01 | 98 | 1016.4 |
| 20260903105518 | 64 | 0 | 0.0 | 0.0 | 0.01 | 0.01 | 0.01 | 98 | 1016.4 |
| 20260903105020 | 64 | 0 | 0.0 | 0.0 | 0.01 | 0.01 | 0.01 | 98 | 1016.3 |
| 20260903104552 | 64 | 0 | 0.0 | 0.0 | 0.01 | 0.01 | 0.01 | 98 | 1016.5 |
| 20260903104021 | 64 | 0 | 0.0 | 0.0 | 0.01 | 0.01 | 0.01 | 98 | 1016.3 |
| 20260903103523 | 64 | 0 | 0.0 | 0.0 | 0.01 | 0.01 | 0.01 | 98 | 1016.4 |
| 20260903103041 | 64 | 0 | 0.0 | 0.0 | 0.01 | 0.01 | 0.01 | 98 | 1016.4 |
| 20260903102518 | 64 | 0 | 0.0 | 0.0 | 0.01 | 0.01 | 0.01 | 97 | 1016.4 |
| 20260903102020 | 64 | 0 | 0.0 | 0.0 | 0.01 | 0.01 | 0.01 | 97 | 1016.4 |
| 20260903101548 | 64 | 0 | 0.0 | 0.0 | 0.01 | 0.01 | 0.01 | 97 | 1016.3 |
| 20260903101019 | 64 | 0 | 0.0 | 0.0 | 0.01 | 0.01 | 0.01 | 97 | 1016.3 |
| 20260903100522 | 64 | 0 | 0.0 | 0.0 | 0.00 | 0.00 | 0.00 | 97 | 1016.2 |
| 20260903100044 | 64 | 0 | 0.0 | 0.0 | 0.00 | 0.00 | 0.00 | 97 | 1016.2 |
| 20260903095522 | 64 | 0 | 0.0 | 0.0 | 0.00 | 0.00 | 0.00 | 97 | 1016.2 |
| 20260903095022 | 64 | 0 | 0.0 | 0.0 | 0.00 | 0.00 | 0.00 | 97 | 1016.3 |
| 20260903094549 | 64 | 0 | 0.0 | 1.0 | 0.00 | 0.00 | 0.00 | 97 | 1016.3 |
| 20260903094023 | 64 | 0 | 0.0 | 1.0 | 0.00 | 0.00 | 0.00 | 97 | 1016.3 |
| 20260903093527 | 64 | 262 | 0.0 | 1.0 | 0.00 | 0.00 | 0.00 | 97 | 1016.2 |
| 20260903093042 | 64 | 0 | 0.0 | 1.0 | 0.00 | 0.00 | 0.00 | 96 | 1016.2 |
| 20260903092519 | 64 | 247 | 0.0 | 1.0 | 0.00 | 0.00 | 0.00 | 96 | 1016.2 |
| 20260903092018 | 64 | 247 | 0.0 | 2.0 | 0.00 | 0.00 | 0.00 | 96 | 1016.3 |
| 20260903091552 | 64 | 30 | 0.0 | 6.0 | 0.00 | 0.00 | 0.00 | 96 | 1016.4 |
| 20260903091023 | 64 | 274 | 1.0 | 6.0 | 0.00 | 0.00 | 0.00 | 96 | 1016.3 |
| 20260903090519 | 64 | 0 | 0.0 | 2.0 | 0.00 | 0.00 | 0.00 | 95 | 1016.3 |
| 20260903090044 | 64 | 218 | 0.0 | 1.0 | 0.00 | 0.00 | 0.00 | 95 | 1016.2 |
| 20260903085520 | 64 | 96 | 0.0 | 1.0 | 0.00 | 0.00 | 0.00 | 95 | 1016.2 |
| 20260903085019 | 64 | 0 | 0.0 | 2.0 | 0.00 | 0.00 | 0.00 | 95 | 1016.3 |
| 20260903084544 | 64 | 95 | 0.0 | 2.0 | 0.00 | 0.00 | 0.00 | 95 | 1016.3 |
| 20260903084021 | 64 | 96 | 0.0 | 2.0 | 0.00 | 0.00 | 0.00 | 95 | 1016.4 |
| 20260903083518 | 64 | 0 | 0.0 | 2.0 | 0.00 | 0.00 | 0.00 | 95 | 1016.4 |
| 20260903083045 | 64 | 0 | 0.0 | 2.0 | 0.00 | 0.00 | 0.00 | 95 | 1016.4 |
| 20260903082519 | 64 | 108 | 0.0 | 2.0 | 0.00 | 0.00 | 0.00 | 95 | 1016.5 |
| 20260903082024 | 64 | 0 | 0.0 | 0.0 | 0.00 | 0.00 | 0.00 | 95 | 1016.4 |
| 20260903081540 | 64 | 0 | 0.0 | 0.0 | 0.00 | 0.00 | 0.00 | 95 | 1016.5 |
| 20260903081022 | 64 | 0 | 0.0 | 0.0 | 0.00 | 0.00 | 0.00 | 95 | 1016.8 |
| 20260903080527 | 64 | 0 | 0.0 | 0.0 | 0.00 | 0.00 | 0.00 | 95 | 1016.7 |
| 20260903080044 | 64 | 0 | 0.0 | 0.0 | 0.00 | 0.00 | 0.00 | 94 | 1016.6 |
| 20260903075526 | 64 | 0 | 0.0 | 0.0 | 0.00 | 0.00 | 0.00 | 94 | 1016.5 |
| 20260903075021 | 64 | 0 | 0.0 | 0.0 | 0.00 | 0.00 | 0.00 | 94 | 1016.3 |
| 20260903074542 | 64 | 0 | 0.0 | 0.0 | 0.00 | 0.00 | 0.00 | 94 | 1016.4 |
| 20260903074018 | 64 | 0 | 0.0 | 2.0 | 0.00 | 0.00 | 0.00 | 94 | 1016.5 |
| 20260903073518 | 64 | 0 | 0.0 | 2.0 | 0.00 | 0.00 | 0.00 | 94 | 1016.6 |
| 20260903073041 | 64 | 285 | 0.0 | 2.0 | 0.00 | 0.00 | 0.00 | 94 | 1016.5 |
| 20260903072524 | 64 | 142 | 1.0 | 2.0 | 0.00 | 0.00 | 0.00 | 94 | 1016.7 |
| 20260903072024 | 63 | 0 | 0.0 | 1.0 | 0.00 | 0.00 | 0.00 | 95 | 1016.6 |
| 20260903071543 | 63 | 0 | 0.0 | 1.0 | 0.00 | 0.00 | 0.00 | 95 | 1016.5 |
| 20260903071020 | 63 | 0 | 0.0 | 0.0 | 0.00 | 0.00 | 0.00 | 95 | 1016.6 |
| 20260903070519 | 63 | 0 | 0.0 | 0.0 | 0.00 | 0.00 | 0.00 | 95 | 1016.5 |
| 20260903070041 | 63 | 0 | 0.0 | 0.0 | 0.00 | 0.00 | 0.00 | 94 | 1016.6 |
| 20260903065519 | 63 | 0 | 0.0 | 0.0 | 0.00 | 0.00 | 0.00 | 94 | 1016.7 |
| 20260903065017 | 63 | 0 | 0.0 | 1.0 | 0.00 | 0.00 | 0.00 | 94 | 1016.7 |
| 20260903064541 | 63 | 79 | 0.0 | 1.0 | 0.00 | 0.00 | 0.00 | 93 | 1016.8 |
| 20260903064024 | 63 | 81 | 0.0 | 1.0 | 0.00 | 0.00 | 0.00 | 93 | 1016.9 |
| 20260903063521 | 63 | 79 | 0.0 | 1.0 | 0.00 | 0.00 | 0.00 | 94 | 1016.9 |
| 20260903063044 | 63 | 0 | 0.0 | 2.0 | 0.00 | 0.00 | 0.00 | 94 | 1016.9 |
| 20260903062523 | 63 | 80 | 0.0 | 2.0 | 0.00 | 0.00 | 0.00 | 93 | 1016.7 |
| 20260903062021 | 63 | 0 | 0.0 | 1.0 | 0.00 | 0.00 | 0.00 | 94 | 1016.8 |
| 20260903061549 | 63 | 0 | 0.0 | 3.0 | 0.00 | 0.00 | 0.00 | 93 | 1016.9 |
| 20260903061021 | 63 | 123 | 0.0 | 3.0 | 0.00 | 0.00 | 0.00 | 94 | 1017.0 |
| 20260903060519 | 63 | 121 | 1.0 | 2.0 | 0.00 | 0.00 | 0.00 | 94 | 1017.3 |
| 20260903060057 | 63 | 13 | 0.0 | 3.0 | 0.00 | 0.00 | 0.00 | 94 | 1017.4 |
| 20260903055519 | 63 | 271 | 1.0 | 3.0 | 0.00 | 0.00 | 0.00 | 94 | 1017.4 |
| 20260903055024 | 63 | 0 | 0.0 | 1.0 | 0.00 | 0.00 | 0.00 | 94 | 1017.4 |
| 20260903054544 | 63 | 0 | 0.0 | 1.0 | 0.00 | 0.00 | 0.00 | 94 | 1017.3 |
| 20260903054023 | 63 | 0 | 0.0 | 0.0 | 0.00 | 0.00 | 0.00 | 93 | 1017.4 |
| 20260903053521 | 63 | 0 | 0.0 | 0.0 | 0.00 | 0.00 | 0.00 | 94 | 1017.5 |
| 20260903053044 | 63 | 0 | 0.0 | 0.0 | 0.00 | 0.00 | 0.00 | 94 | 1017.8 |
| 20260903052524 | 63 | 0 | 0.0 | 0.0 | 0.00 | 0.00 | 0.00 | 94 | 1017.7 |
| 20260903052018 | 63 | 0 | 0.0 | 0.0 | 0.00 | 0.00 | 0.00 | 93 | 1017.9 |
| 20260903051540 | 63 | 0 | 0.0 | 0.0 | 0.00 | 0.00 | 0.00 | 93 | 1017.9 |
| 20260903051019 | 63 | 0 | 0.0 | 0.0 | 0.00 | 0.00 | 0.00 | 94 | 1017.9 |
| 20260903050520 | 63 | 0 | 0.0 | 0.0 | 0.00 | 0.00 | 0.00 | 94 | 1018.0 |
| 20260903050045 | 63 | 0 | 0.0 | 0.0 | 0.00 | 0.00 | 0.00 | 94 | 1018.0 |
| 20260903045523 | 63 | 0 | 0.0 | 0.0 | 0.00 | 0.00 | 0.00 | 93 | 1017.9 |
| 20260903045024 | 63 | 0 | 0.0 | 0.0 | 0.00 | 0.00 | 0.00 | 93 | 1018.0 |
| 20260903044542 | 63 | 0 | 0.0 | 0.0 | 0.00 | 0.00 | 0.00 | 92 | 1017.9 |
| 20260903044027 | 63 | 0 | 0.0 | 2.0 | 0.00 | 0.00 | 0.00 | 91 | 1017.9 |
| 20260903043520 | 63 | 0 | 0.0 | 2.0 | 0.00 | 0.00 | 0.00 | 90 | 1018.0 |
| 20260903043041 | 63 | 65 | 0.0 | 2.0 | 0.00 | 0.00 | 0.00 | 90 | 1018.0 |
| 20260903042520 | 63 | 0 | 0.0 | 2.0 | 0.00 | 0.00 | 0.00 | 92 | 1018.0 |
| 20260903042017 | 63 | 0 | 0.0 | 1.0 | 0.00 | 0.00 | 0.00 | 92 | 1017.9 |
| 20260903041541 | 63 | 0 | 0.0 | 2.0 | 0.00 | 0.00 | 0.00 | 92 | 1018.0 |
| 20260903041023 | 63 | 0 | 1.0 | 2.0 | 0.00 | 0.00 | 0.00 | 92 | 1018.1 |
| 20260903040519 | 63 | 0 | 1.0 | 2.0 | 0.00 | 0.00 | 0.00 | 91 | 1018.0 |
| 20260903040044 | 63 | 7 | 0.0 | 2.0 | 0.00 | 0.00 | 0.00 | 90 | 1018.1 |
| 20260903035523 | 63 | 67 | 1.0 | 2.0 | 0.00 | 0.00 | 0.00 | 90 | 1018.1 |
| 20260903035024 | 64 | 71 | 0.0 | 1.0 | 0.00 | 0.00 | 0.00 | 90 | 1018.2 |
| 20260903034541 | 64 | 0 | 0.0 | 0.0 | 0.00 | 0.00 | 0.00 | 89 | 1018.3 |
| 20260903034022 | 64 | 0 | 0.0 | 1.0 | 0.00 | 0.00 | 0.00 | 88 | 1018.4 |
| 20260903033520 | 64 | 75 | 0.0 | 2.0 | 0.00 | 0.00 | 0.00 | 88 | 1018.4 |
| 20260903033044 | 64 | 73 | 0.0 | 2.0 | 0.00 | 0.00 | 0.00 | 86 | 1018.4 |
| 20260903032520 | 64 | 0 | 0.0 | 1.0 | 0.00 | 0.00 | 0.00 | 87 | 1018.4 |
| 20260903032028 | 65 | 55 | 0.0 | 4.0 | 0.00 | 0.00 | 0.00 | 86 | 1018.5 |
| 20260903031545 | 65 | 0 | 1.0 | 4.0 | 0.00 | 0.00 | 0.00 | 86 | 1018.6 |
| 20260903031029 | 65 | 78 | 0.0 | 4.0 | 0.00 | 0.00 | 0.00 | 87 | 1018.6 |
| 20260903030524 | 65 | 174 | 1.0 | 7.0 | 0.00 | 0.00 | 0.00 | 86 | 1018.6 |
| 20260903030049 | 64 | 122 | 0.0 | 7.0 | 0.00 | 0.00 | 0.00 | 87 | 1018.7 |
| 20260903025520 | 64 | 0 | 0.0 | 3.0 | 0.00 | 0.00 | 0.00 | 87 | 1018.8 |
| 20260903025018 | 64 | 13 | 0.0 | 3.0 | 0.00 | 0.00 | 0.00 | 89 | 1018.8 |
| 20260903024540 | 64 | 15 | 0.0 | 3.0 | 0.00 | 0.00 | 0.00 | 88 | 1018.8 |
| 20260903024019 | 64 | 211 | 1.0 | 3.0 | 0.00 | 0.00 | 0.00 | 88 | 1018.6 |
| 20260903023521 | 64 | 0 | 0.0 | 2.0 | 0.00 | 0.00 | 0.00 | 88 | 1018.7 |
| 20260903023046 | 64 | 317 | 0.0 | 3.0 | 0.00 | 0.00 | 0.00 | 88 | 1018.8 |
| 20260903022520 | 64 | 308 | 1.0 | 3.0 | 0.00 | 0.00 | 0.00 | 90 | 1019.2 |
| 20260903022027 | 64 | 7 | 0.0 | 2.0 | 0.00 | 0.00 | 0.00 | 90 | 1019.1 |
| 20260903021548 | 64 | 340 | 1.0 | 3.0 | 0.00 | 0.00 | 0.00 | 89 | 1019.4 |
| 20260903021021 | 64 | 23 | 1.0 | 3.0 | 0.00 | 0.00 | 0.00 | 90 | 1019.5 |
| 20260903020518 | 64 | 1 | 1.0 | 1.0 | 0.00 | 0.00 | 0.00 | 93 | 1019.5 |
| 20260903020038 | 64 | 356 | 0.0 | 3.0 | 0.00 | 0.00 | 0.00 | 93 | 1019.5 |